STARLINK-31904, 59657

Orbit data source: Space-Track

STARLINK-31904, 59657 is a payload satellite owned by SpaceX/Seattle (US) in LEO that was launched on Mon, 06 May 2024 UTC via an FALCON 9 launch vehicle from the Air Force Eastern Test Range (AFETR). Payload-class satellites include a variety of spacecraft equipped with specific instruments for various scientific and technological missions. These include communications satellites like Starlink; space stations such as the ISS; scientific satellites like the Hubble; Earth observation satellites from companies like Planet Labs, Umbra, and HawkEye 360; GPS; miniature CubeSats for education and research; and military/defense satellites.

Loading next visibility...
Identifier
59657, 2024-084D
Orbit
LEO
Last TLE update
7 hours ago
Origin
Manufacturer
SpaceX/Seattle
Mission
Operational spacecraft
Bus & Motor
STARLINK V2M, Unknown motor
Mass
730 kg wet, ~700 kg dry
Launch date (UTC)
2024-05-06 (1 year ago)
Launch vehicle
FALCON 9
Launch site
Air Force Eastern Test Range (AFETR)
Object type
Payload
Rocket body
Debris
Shape & HBR
Unknown
Radar Cross Section
Large (>1 m²)

Expand to show TLE details & history

TLE from 7 hours ago
0 STARLINK-31904
1 59657U 24084D   25186.86422471 -.00000709  00000-0 -16245-4 0  9996
2 59657  43.0038 355.8030 0001539 259.0520 101.0159 15.27575193 66551
Epoch: 2025-07-05T20:44Z
TLE epoch observation values (Epoch: 2025-07-05T20:44:29.014Z)
Latitude
-0.00001°
Longitude
120.58594°
Altitude
483.041 km
Speed
7.626 km/s
True Right ascension
23h 43m 12s
True Declination
0° 00' 00"
Sunlit
Object was in daylight at epoch
Visualization orbit readout
Latitude
19.00559°
Longitude
-82.5947°
Altitude
482.684 km
Speed
7.627 km/s
Apparent Right ascension
07h 30m 45s
Apparent Declination
-13° 45' 32"
Sunlit
Object is in daylight
Visualization observer readout
Local Sidereal Time
15:37:47
Azimuth
280° WNW
Elevation
-33.006°
Doppler factor
1
Orbital elements
Apogee altitude
486.064 km
Perigee altitude
483.952 km
Semi-major axis
6,863.145 km
Eccentricity
0.00015
Inclination
43.0038°
RAAN
355.803°
Arg. of periapsis
259.052°
True anomaly
Unknown
Mean anomaly
101.0159°
Eccentric anomaly
Unknown
Mean motion
3.81732 °/min
Orbital period
94.31 mins
BSTAR
-0.000016245
Loading maneuver chart data...
Loading SW <> Apogee altitude chart data...
Loading historical data...
Loading historical data...
Loading historical data...
Loading historical data...
Loading historical data...
Loading historical data...
Loading historical data...

STARLINK-31904 Visibility forecast

Observer location: undefined°, undefined°

Span
Click to sort rows by Start time (UTC) header in descending order
Start Az.
Max El. time (UTC)
Max El. Az.
Max El.
End time (UTC)
End Az.
6 mins2025-07-06 14:11:44.288Z203.547° SW2025-07-06 14:14:44.288Z141.867° SSE24.737°2025-07-06 14:17:44.288Z88.303° E
6 mins2025-07-06 15:50:44.288Z257.62° W2025-07-06 15:53:44.288Z50.303° ENE42.284°2025-07-06 15:56:44.288Z70.932° E
5 mins2025-07-06 17:30:44.288Z297.837° NW2025-07-06 17:32:44.288Z19.974° NNE37.445°2025-07-06 17:35:44.288Z77.536° E
5 mins2025-07-06 19:09:44.288Z287.316° WNW2025-07-06 19:11:44.288Z126.627° SE44.678°2025-07-06 19:14:44.288Z110.566° ESE
4 mins2025-07-06 20:48:44.288Z246.881° WSW2025-07-06 20:49:44.288Z226.107° WSW19.804°2025-07-06 20:52:44.288Z167.537° S
|